| time (UTC) | temp F | wind direction | speed knots | gust knots | rain 1hr in | rain 24hr in | rain mn in | humidity % | barometer mb |
| 20260901023043 | 77 | 0 | 0.0 | 0.0 | 0.00 | 0.00 | 0.00 | 74 | 1014.8 |
| 20260901021545 | 77 | 0 | 0.0 | 0.0 | 0.00 | 0.00 | 0.00 | 72 | 1014.7 |
| 20260901020043 | 78 | 0 | 0.0 | 0.0 | 0.00 | 0.00 | 0.00 | 70 | 1014.7 |
| 20260901014546 | 79 | 0 | 0.0 | 0.0 | 0.00 | 0.00 | 0.00 | 68 | 1014.5 |
| 20260901013042 | 80 | 0 | 0.0 | 0.0 | 0.00 | 0.00 | 0.00 | 67 | 1014.4 |
| 20260901011553 | 81 | 0 | 0.0 | 0.9 | 0.00 | 0.00 | 0.00 | 65 | 1014.4 |
| 20260901010047 | 82 | 0 | 0.0 | 0.9 | 0.00 | 0.00 | 0.00 | 62 | 1014.2 |
| 20260901004546 | 84 | 0 | 0.0 | 0.9 | 0.00 | 0.00 | 0.00 | 60 | 1014.2 |
| 20260901003050 | 85 | 107 | 0.0 | 3.5 | 0.00 | 0.00 | 0.00 | 58 | 1014.3 |
| 20260901001544 | 86 | 0 | 0.0 | 3.5 | 0.00 | 0.00 | 0.00 | 54 | 1014.2 |
| 20260901000044 | 86 | 0 | 0.0 | 3.5 | 0.00 | 0.00 | 0.00 | 51 | 1014.1 |
| 20260831234547 | 87 | 44 | 0.0 | 3.5 | 0.00 | 0.00 | 0.00 | 49 | 1014.0 |
| 20260831233044 | 88 | 0 | 0.0 | 3.5 | 0.00 | 0.00 | 0.00 | 47 | 1014.0 |
| 20260831231542 | 89 | 159 | 0.0 | 1.7 | 0.00 | 0.00 | 0.00 | 43 | 1014.1 |
| 20260831230047 | 89 | 177 | 0.0 | 3.5 | 0.00 | 0.00 | 0.00 | 43 | 1014.0 |
| 20260831224544 | 90 | 204 | 0.0 | 2.6 | 0.00 | 0.00 | 0.00 | 42 | 1014.0 |
| 20260831223044 | 91 | 93 | 0.9 | 2.6 | 0.00 | 0.00 | 0.00 | 40 | 1013.9 |
| 20260831221545 | 92 | 217 | 0.9 | 3.5 | 0.00 | 0.00 | 0.00 | 38 | 1014.0 |
| 20260831220056 | 93 | 105 | 0.0 | 4.3 | 0.00 | 0.00 | 0.00 | 39 | 1014.1 |
| 20260831214547 | 92 | 211 | 0.0 | 1.7 | 0.00 | 0.00 | 0.00 | 38 | 1014.2 |
| 20260831213045 | 93 | 0 | 0.0 | 3.5 | 0.00 | 0.00 | 0.00 | 38 | 1014.3 |
| 20260831211543 | 92 | 268 | 0.0 | 5.2 | 0.00 | 0.00 | 0.00 | 40 | 1014.5 |
| 20260831210044 | 92 | 228 | 1.7 | 5.2 | 0.00 | 0.00 | 0.00 | 37 | 1014.4 |
| 20260831204555 | 93 | 264 | 0.9 | 2.6 | 0.00 | 0.00 | 0.00 | 36 | 1014.6 |
| 20260831203057 | 92 | 172 | 0.9 | 5.2 | 0.00 | 0.00 | 0.00 | 40 | 1014.5 |
| 20260831201547 | 92 | 163 | 1.7 | 3.5 | 0.00 | 0.00 | 0.00 | 40 | 1014.5 |
| 20260831200051 | 91 | 0 | 0.0 | 1.7 | 0.00 | 0.00 | 0.00 | 44 | 1014.5 |
| 20260831194543 | 91 | 0 | 0.0 | 2.6 | 0.00 | 0.00 | 0.00 | 41 | 1014.4 |
| 20260831193046 | 90 | 0 | 0.0 | 2.6 | 0.00 | 0.00 | 0.00 | 43 | 1014.4 |
| 20260831191548 | 89 | 98 | 0.0 | 2.6 | 0.00 | 0.00 | 0.00 | 49 | 1014.6 |
| 20260831184541 | 90 | 207 | 0.0 | 1.7 | 0.00 | 0.00 | 0.00 | 50 | 1014.6 |
| 20260831183040 | 87 | 206 | 0.0 | 0.9 | 0.00 | 0.00 | 0.00 | 53 | 1014.8 |
| 20260831181554 | 85 | 0 | 0.0 | 3.5 | 0.00 | 0.00 | 0.00 | 58 | 1014.7 |
| 20260831180043 | 85 | 71 | 0.0 | 2.6 | 0.00 | 0.00 | 0.00 | 59 | 1014.7 |
| 20260831174550 | 85 | 19 | 0.0 | 2.6 | 0.00 | 0.00 | 0.00 | 61 | 1015.0 |
| 20260831173044 | 84 | 0 | 0.0 | 1.7 | 0.00 | 0.00 | 0.00 | 65 | 1015.2 |
| 20260831171544 | 83 | 0 | 0.0 | 0.9 | 0.00 | 0.00 | 0.00 | 67 | 1015.3 |
| 20260831170045 | 81 | 62 | 0.0 | 3.5 | 0.00 | 0.00 | 0.00 | 69 | 1015.2 |
| 20260831164544 | 80 | 171 | 0.0 | 4.3 | 0.00 | 0.00 | 0.00 | 72 | 1015.0 |
| 20260831163046 | 78 | 57 | 0.9 | 3.5 | 0.00 | 0.00 | 0.00 | 73 | 1015.0 |
| 20260831161545 | 78 | 57 | 0.9 | 4.3 | 0.00 | 0.00 | 0.00 | 73 | 1015.0 |
| 20260831160115 | 78 | 55 | 0.9 | 3.5 | 0.00 | 0.00 | 0.00 | 75 | 1015.1 |
| 20260831154610 | 78 | 63 | 0.0 | 4.3 | 0.00 | 0.00 | 0.00 | 77 | 1015.1 |
| 20260831153119 | 76 | 0 | 0.0 | 2.6 | 0.00 | 0.00 | 0.00 | 83 | 1015.1 |
| 20260831151545 | 75 | 0 | 0.0 | 2.6 | 0.00 | 0.00 | 0.00 | 84 | 1015.0 |
| 20260831150044 | 73 | 0 | 0.0 | 2.6 | 0.00 | 0.00 | 0.00 | 86 | 1014.7 |
| 20260831144544 | 73 | 0 | 0.0 | 2.6 | 0.00 | 0.00 | 0.00 | 87 | 1014.6 |
| 20260831143053 | 73 | 62 | 0.0 | 2.6 | 0.00 | 0.00 | 0.00 | 89 | 1014.4 |
| 20260831141545 | 71 | 0 | 0.0 | 1.7 | 0.00 | 0.00 | 0.00 | 90 | 1014.2 |
| 20260831140044 | 71 | 0 | 0.0 | 1.7 | 0.00 | 0.00 | 0.00 | 91 | 1014.2 |
| 20260831134546 | 71 | 262 | 0.0 | 0.0 | 0.00 | 0.00 | 0.00 | 92 | 1013.9 |
| 20260831133044 | 71 | 0 | 0.0 | 4.3 | 0.00 | 0.00 | 0.00 | 94 | 1013.7 |
| 20260831131542 | 71 | 324 | 0.0 | 1.7 | 0.00 | 0.00 | 0.00 | 95 | 1013.3 |
| 20260831130056 | 71 | 0 | 0.0 | 0.9 | 0.00 | 0.00 | 0.00 | 96 | 1013.0 |
| 20260831124546 | 70 | 0 | 0.0 | 0.9 | 0.00 | 0.00 | 0.00 | 96 | 1012.9 |
| 20260831123049 | 70 | 0 | 0.0 | 1.7 | 0.00 | 0.00 | 0.00 | 96 | 1012.4 |
| 20260831121549 | 70 | 0 | 0.0 | 0.9 | 0.00 | 0.00 | 0.00 | 96 | 1012.2 |
| 20260831120139 | 70 | 93 | 0.0 | 2.6 | 0.00 | 0.00 | 0.00 | 95 | 1011.7 |
| 20260831114544 | 71 | 0 | 0.0 | 2.6 | 0.00 | 0.00 | 0.00 | 95 | 1011.5 |
| 20260831113043 | 71 | 0 | 0.9 | 3.5 | 0.00 | 0.00 | 0.00 | 94 | 1011.5 |
| 20260831111547 | 71 | 64 | 0.0 | 3.5 | 0.00 | 0.00 | 0.00 | 94 | 1011.2 |
| 20260831110045 | 71 | 0 | 0.9 | 5.2 | 0.00 | 0.00 | 0.00 | 94 | 1011.2 |
| 20260831104542 | 71 | 68 | 0.0 | 3.5 | 0.00 | 0.00 | 0.00 | 94 | 1011.4 |
| 20260831103048 | 71 | 107 | 0.9 | 4.3 | 0.00 | 0.00 | 0.00 | 93 | 1011.1 |
| 20260831101548 | 70 | 91 | 0.0 | 2.6 | 0.00 | 0.00 | 0.00 | 91 | 1010.9 |
| 20260831100050 | 71 | 332 | 0.9 | 3.5 | 0.00 | 0.00 | 0.00 | 89 | 1010.8 |
| 20260831094550 | 71 | 0 | 0.0 | 1.7 | 0.00 | 0.00 | 0.00 | 88 | 1010.7 |
| 20260831093044 | 71 | 0 | 0.0 | 1.7 | 0.00 | 0.00 | 0.00 | 87 | 1010.5 |
| 20260831091544 | 72 | 0 | 0.0 | 3.5 | 0.00 | 0.00 | 0.00 | 88 | 1010.0 |
| 20260831090046 | 70 | 0 | 0.0 | 0.0 | 0.00 | 0.00 | 0.00 | 92 | 1009.9 |
| 20260831084547 | 71 | 0 | 0.0 | 0.9 | 0.00 | 0.00 | 0.00 | 91 | 1009.6 |
| 20260831083053 | 72 | 0 | 0.0 | 4.3 | 0.00 | 0.00 | 0.00 | 91 | 1009.7 |
| 20260831081556 | 72 | 0 | 0.0 | 2.6 | 0.00 | 0.00 | 0.00 | 91 | 1009.7 |
| 20260831080046 | 72 | 264 | 0.0 | 2.6 | 0.00 | 0.00 | 0.00 | 90 | 1009.3 |
| 20260831074543 | 73 | 254 | 0.0 | 3.5 | 0.00 | 0.00 | 0.00 | 91 | 1009.4 |
| 20260831073047 | 72 | 263 | 0.0 | 2.6 | 0.00 | 0.00 | 0.00 | 92 | 1009.4 |
| 20260831071544 | 72 | 0 | 0.0 | 1.7 | 0.00 | 0.00 | 0.00 | 92 | 1009.2 |
| 20260831070108 | 72 | 199 | 0.0 | 1.7 | 0.00 | 0.00 | 0.00 | 92 | 1009.1 |
| 20260831064544 | 73 | 0 | 0.0 | 1.7 | 0.00 | 0.00 | 0.00 | 92 | 1009.1 |
| 20260831063042 | 73 | 0 | 0.0 | 0.9 | 0.00 | 0.00 | 0.00 | 91 | 1009.3 |
| 20260831061544 | 74 | 0 | 0.0 | 1.7 | 0.00 | 0.00 | 0.00 | 91 | 1009.4 |
| 20260831060058 | 74 | 225 | 0.0 | 0.9 | 0.00 | 0.00 | 0.00 | 90 | 1009.5 |
| 20260831054545 | 75 | 0 | 0.0 | 0.9 | 0.00 | 0.00 | 0.00 | 89 | 1009.2 |
| 20260831053046 | 75 | 188 | 0.0 | 1.7 | 0.00 | 0.00 | 0.00 | 89 | 1009.4 |
| 20260831051557 | 75 | 167 | 0.0 | 0.9 | 0.00 | 0.00 | 0.00 | 88 | 1009.3 |
| 20260831050049 | 76 | 166 | 0.0 | 1.7 | 0.00 | 0.00 | 0.00 | 87 | 1009.2 |
| 20260831044546 | 76 | 207 | 0.0 | 1.7 | 0.00 | 0.00 | 0.00 | 86 | 1009.4 |
| 20260831043044 | 77 | 198 | 0.0 | 2.6 | 0.00 | 0.00 | 0.00 | 85 | 1009.4 |
| 20260831041546 | 77 | 237 | 0.0 | 2.6 | 0.00 | 0.00 | 0.00 | 85 | 1009.4 |
| 20260831040049 | 77 | 203 | 0.0 | 1.7 | 0.00 | 0.00 | 0.00 | 84 | 1009.2 |
| 20260831034544 | 77 | 0 | 0.0 | 0.9 | 0.00 | 0.00 | 0.00 | 84 | 1009.2 |
| 20260831033042 | 78 | 200 | 0.0 | 2.6 | 0.00 | 0.00 | 0.00 | 83 | 1009.2 |
| 20260831031547 | 78 | 201 | 0.0 | 1.7 | 0.00 | 0.00 | 0.00 | 81 | 1009.1 |
| 20260831030045 | 79 | 190 | 0.0 | 1.7 | 0.00 | 0.00 | 0.00 | 78 | 1009.0 |
| 20260831024554 | 80 | 207 | 0.9 | 3.5 | 0.00 | 0.00 | 0.00 | 76 | 1008.9 |